[[{"header":{"parameterUnit":"m.s-1","parameterCategory":1,"la1":30.2991,"la2":30.254,"lo1":-89.0895,"lo2":-89.0444,"dy":0.0017,"dx":0.0017,"nx":28,"ny":28,"refTime":"2024-04-01T09:00:00:Z","depth":0,"parameterNumber":2,"parameterNumberName":"U-component_of_WINDS"},"data":[0,0,0,0,0,0,0,0,0,0,0,0,0,0,0,0,0,0,0,0,0,0,0,0,0,0,0,0,0,0,0,0,0,0,0,0,0,0,0,0,0,0,0,0,0,0,0,0,0,0,0,0,0,0,0,0,0,0,-3.1445,-3.1446,0,-3.1512,-3.1513,-3.1513,-3.1506,-3.1505,-3.1504,-3.1503,-3.1569,-3.1572,-3.1575,0,0,0,0,0,0,0,0,0,0,0,0,0,-3.131,-3.1313,-3.1445,-3.1446,-3.1447,-3.1512,-3.1513,-3.1513,-3.1506,-3.1505,-3.1504,-3.1502,-3.1568,-3.1572,-3.1575,0,0,0,0,0,0,0,0,0,0,0,0,0,-3.1372,-3.1314,-3.1445,-3.1451,-3.1452,-3.1511,-3.1513,-3.1514,-3.1506,-3.1505,-3.1503,-3.1502,-3.1567,-3.1571,-3.1575,-3.1633,0,0,-3.1588,-3.159,0,0,0,0,0,0,0,0,-3.1369,-3.1377,-3.1449,-3.1451,-3.1452,-3.1499,-3.149,-3.1553,-3.1507,-3.1486,-3.1503,-3.1501,-3.1547,-3.1553,-3.1569,-3.1636,-3.1638,-3.1588,-3.1591,-3.1593,-3.1594,0,0,0,0,0,0,0,-3.1364,-3.1374,-3.1471,-3.145,-3.1452,-3.145,-3.1457,-3.1502,-3.1524,-3.1487,-3.1487,-3.1495,-3.1548,-3.1565,-3.157,-3.1639,-3.1588,-3.1592,-3.1595,-3.1596,-3.1757,-3.1759,0,0,0,0,0,0,-3.1359,-3.1371,-3.1469,-3.1473,-3.1406,-3.1454,-3.1462,-3.1485,-3.1524,-3.1528,-3.1496,-3.1495,-3.1558,-3.1565,-3.1573,-3.1642,-3.1593,-3.1597,-3.1599,-3.1755,-3.1758,-3.1759,0,0,0,0,0,0,-3.1356,-3.1368,-3.1466,-3.1422,-3.1434,-3.1458,-3.1485,-3.1488,-3.1505,-3.1531,-3.1535,-3.151,-3.1558,-3.1567,-3.1618,-3.1644,-3.1598,-3.1602,-3.1753,-3.1756,-3.1759,-3.178,0,0,0,0,0,0,-3.1352,-3.1367,-3.1389,-3.1423,-3.1437,-3.1511,-3.1486,-3.149,-3.1512,-3.151,-3.1544,-3.1548,-3.1557,-3.1612,-3.1622,-3.1649,-3.1605,-3.1751,-3.1754,-3.1758,-3.1777,-3.1783,-3.1789,0,0,0,0,0,-3.1347,-3.1392,-3.139,-3.1402,-3.1465,-3.1512,-3.1521,-3.153,-3.1514,-3.1536,-3.1553,-3.1547,-3.164,-3.1617,-3.1629,-3.1657,-3.1749,-3.1753,-3.1757,-3.1775,-3.1782,-3.1788,0,0,0,0,0,0,-3.1359,-3.1396,-3.1394,-3.1451,-3.1479,-3.1511,-3.1539,-3.1538,-3.157,-3.1566,-3.1577,-3.1584,-3.1636,-3.1652,-3.1626,-3.1714,-3.1692,-3.1699,-3.1702,-3.1709,-3.1714,-3.1709,-3.1609,0,0,0,0,0,-3.1368,-3.1404,-3.1435,-3.1482,-3.1496,-3.1515,-3.1536,-3.1542,-3.157,-3.1582,-3.1602,-3.163,-3.1666,-3.1688,-3.1722,-3.1781,-3.1787,-3.1806,-3.1811,-3.1816,-3.1821,-3.1852,-3.1861,-3.1773,-3.1773,-3.1773,0,0,-3.1388,-3.1412,-3.1434,-3.1485,-3.1507,-3.1543,-3.1525,-3.1564,-3.1592,-3.1588,-3.1637,-3.1654,-3.1685,-3.174,-3.1765,-3.1755,-3.1847,-3.1821,-3.1824,-3.1827,-3.1857,-3.1866,-3.1873,-3.1776,-3.1775,-3.1775,0,0,-3.1441,-3.1464,-3.1505,-3.1528,-3.1562,-3.1575,-3.1586,-3.1619,-3.163,-3.168,-3.1678,-3.171,-3.1771,-3.1794,-3.1813,-3.1878,-3.1873,-3.1889,-3.1917,-3.1948,-3.1955,-3.1961,-3.1983,-3.1991,-3.1894,-3.1894,-3.1894,0,-3.146,-3.1515,-3.1527,-3.1567,-3.1589,-3.1589,-3.1631,-3.1652,-3.1696,-3.1711,-3.1699,-3.1776,-3.1797,-3.1858,-3.1873,-3.189,-3.1901,-3.1884,-3.1953,-3.196,-3.1966,-3.1987,-3.1995,-3.1896,-3.1896,-3.1895,-3.1895,0,-3.1537,-3.1576,-3.1605,-3.1648,-3.1674,-3.1715,-3.1732,-3.1757,-3.1761,-3.1775,-3.1826,-3.1852,-3.1892,-3.1907,-3.191,-3.1968,-3.196,-3.1951,-3.1929,-3.1975,-3.1995,-3.2004,-3.1898,-3.1897,-3.1897,-3.1897,0,0,-3.1597,-3.1647,-3.1657,-3.1677,-3.1716,-3.1745,-3.1787,-3.1826,-3.1847,-3.1878,-3.1912,-3.1965,-3.1957,-3.1979,-3.1986,-3.2013,-3.2062,-3.2,-3.2001,-3.201,-3.2126,-3.2131,-3.2141,-3.206,-3.2062,-3.2063,-3.2123,0,-3.1653,-3.1726,-3.1738,-3.1802,-3.1838,-3.184,-3.1876,-3.1903,-3.1918,-3.1951,-3.1967,-3.2004,-3.1991,-3.2005,-3.2032,-3.205,-3.2085,-3.2046,-3.2091,-3.2093,-3.2081,-3.2151,-3.2157,-3.2212,-3.2131,-3.2132,-3.2133,0,-3.1728,-3.1761,-3.1829,-3.1863,-3.1879,-3.1911,-3.1948,-3.198,-3.2011,-3.202,-3.2046,-3.205,-3.2093,-3.2071,-3.213,-3.2103,-3.2123,-3.2135,-3.2137,-3.214,-3.2114,-3.2154,-3.223,-3.2238,-3.2146,-3.2145,-3.2144,0,-3.1763,-3.1825,-3.1874,-3.1891,-3.1933,-3.1955,-3.1973,-3.2004,-3.2027,-3.206,-3.2075,-3.2113,-3.2133,-3.2162,-3.2176,-3.2158,-3.2234,-3.2212,-3.2241,-3.2241,-3.2255,-3.2254,-3.2333,-3.2271,-3.2271,-3.2271,-3.2271,0,-3.1824,-3.1865,-3.1891,-3.192,-3.1966,-3.1981,-3.2026,-3.2044,-3.2071,-3.2104,-3.2108,-3.2139,-3.2156,-3.219,-3.2201,-3.2248,-3.2258,-3.2266,-3.2268,-3.2264,-3.2263,-3.2276,-3.2272,-3.2273,-3.2272,-3.2272,-3.2272,0,-3.187,-3.1889,-3.1942,-3.1978,-3.1988,-3.202,-3.2051,-3.208,-3.2096,-3.2138,-3.2148,-3.2173,-3.2213,-3.223,-3.2279,-3.2287,-3.234,-3.234,-3.2329,-3.233,-3.2357,-3.2354,-3.2446,-3.2459,-3.239,-3.239,-3.2391,0,-3.1907,-3.1938,-3.1978,-3.2001,-3.202,-3.2057,-3.2081,-3.2097,-3.2121,-3.2161,-3.2185,-3.2225,-3.2258,-3.2321,-3.2343,-3.2381,-3.2381,-3.2411,-3.2387,-3.2382,-3.238,-3.2378,-3.2381,-3.2415,-3.2415,-3.2416,-3.2416,0,-3.1969,-3.1977,-3.2012,-3.205,-3.2079,-3.211,-3.214,-3.2158,-3.2179,-3.2207,-3.2248,-3.2274,-3.2324,-3.2364,-3.2403,-3.2422,-3.2423,-3.2425,-3.2433,-3.2429,-3.2421,-3.2424,-3.234,-3.2422,-3.2421,-3.2421,-3.242,-3.242,-3.2011,-3.2039,-3.2071,-3.211,-3.2135,-3.2163,-3.2192,-3.2212,-3.2247,-3.229,-3.2297,-3.2341,-3.2373,-3.2426,-3.2447,-3.2481,-3.2474,-3.2486,-3.2489,-3.2491,-3.2493,-3.2417,-3.2489,-3.2488,-3.2488,-3.2488,-3.2488,0,-3.2072,-3.2093,-3.2129,-3.2171,-3.2202,-3.2202,-3.2235,-3.2261,-3.2299,-3.2329,-3.2362,-3.241,-3.2449,-3.2475,-3.2514,-3.2537,-3.2538,-3.2546,-3.2544,-3.2548,-3.2497,-3.2486,-3.2545,-3.2545,-3.2545,-3.2545,-3.2545,-3.2545,-3.2107,-3.2155,-3.2167,-3.2228,-3.2249,-3.2292,-3.2311,-3.2338,-3.2362,-3.2415,-3.2448,-3.2465,-3.2493,-3.2535,-3.2571,-3.2578,-3.2591,-3.26,-3.2606,-3.2558,-3.2552,-3.2546,-3.2535,-3.2603,-3.2603,-3.2654,-3.2654,-3.2655]},{"header":{"parameterUnit":"m.s-1","parameterCategory":1,"la1":30.2991,"la2":30.254,"lo1":-89.0895,"lo2":-89.0444,"dy":0.0017,"dx":0.0017,"nx":28,"ny":28,"refTime":"2024-04-01T09:00:00:Z","depth":0,"parameterNumber":3,"parameterNumberName":"V-component_of_WINDS"},"data":[0,0,0,0,0,0,0,0,0,0,0,0,0,0,0,0,0,0,0,0,0,0,0,0,0,0,0,0,0,0,0,0,0,0,0,0,0,0,0,0,0,0,0,0,0,0,0,0,0,0,0,0,0,0,0,0,0,0,5.5712,5.5712,0,5.5793,5.5794,5.5795,5.5791,5.5789,5.5788,5.5787,5.5866,5.5869,5.5872,0,0,0,0,0,0,0,0,0,0,0,0,0,5.5547,5.555,5.5711,5.5713,5.5714,5.5793,5.5794,5.5795,5.5791,5.5789,5.5788,5.5787,5.5865,5.5868,5.5872,0,0,0,0,0,0,0,0,0,0,0,0,0,5.5623,5.5551,5.5711,5.5721,5.5723,5.5793,5.5794,5.5796,5.5791,5.5789,5.5788,5.5786,5.5863,5.5868,5.5873,5.5937,0,0,5.5887,5.5889,0,0,0,0,0,0,0,0,5.5618,5.5629,5.5719,5.5721,5.5723,5.578,5.5765,5.5843,5.5792,5.5765,5.5787,5.5785,5.5838,5.5845,5.5864,5.5941,5.5944,5.5888,5.5891,5.5893,5.5894,0,0,0,0,0,0,0,5.5613,5.5625,5.5744,5.572,5.5722,5.572,5.5729,5.578,5.581,5.5767,5.5767,5.5777,5.5839,5.5859,5.5866,5.5945,5.5888,5.5892,5.5895,5.5897,5.6079,5.6081,0,0,0,0,0,0,5.5606,5.5621,5.5741,5.5746,5.5665,5.5724,5.5734,5.5763,5.581,5.5815,5.5779,5.5777,5.5852,5.586,5.5868,5.5948,5.5893,5.5897,5.59,5.6077,5.608,5.6082,0,0,0,0,0,0,5.5603,5.5617,5.5738,5.5684,5.5699,5.5729,5.5762,5.5766,5.5786,5.5818,5.5823,5.5794,5.5851,5.5862,5.5921,5.595,5.5899,5.5904,5.6075,5.6078,5.6081,5.6106,0,0,0,0,0,0,5.5598,5.5616,5.5642,5.5684,5.5702,5.579,5.5764,5.5769,5.5795,5.5793,5.5834,5.5839,5.5851,5.5913,5.5925,5.5956,5.5907,5.6072,5.6076,5.608,5.6103,5.611,5.6116,0,0,0,0,0,5.5592,5.5644,5.5643,5.5658,5.5735,5.5792,5.5801,5.5815,5.5798,5.5823,5.5844,5.5838,5.5945,5.592,5.5933,5.5965,5.607,5.6075,5.6079,5.61,5.6108,5.6115,0,0,0,0,0,0,5.5603,5.565,5.5649,5.5717,5.5751,5.5791,5.5824,5.5823,5.5861,5.5858,5.5871,5.588,5.5939,5.5958,5.5929,5.603,5.6005,5.6013,5.6016,5.6025,5.6031,5.6026,5.5911,0,0,0,0,0,5.5613,5.5657,5.5695,5.5751,5.5768,5.5793,5.5818,5.5826,5.5861,5.5874,5.5899,5.5932,5.5973,5.5999,5.6039,5.6105,5.6114,5.6134,5.614,5.6145,5.6152,5.6189,5.6199,5.6097,5.6097,5.6096,0,0,5.5634,5.5666,5.5692,5.5754,5.5781,5.5825,5.5805,5.5852,5.5885,5.5881,5.5939,5.5958,5.5995,5.6058,5.6087,5.6076,5.6182,5.6151,5.6155,5.6159,5.6195,5.6204,5.6213,5.61,5.6099,5.6099,0,0,5.5697,5.5724,5.5775,5.5803,5.5845,5.5861,5.5873,5.5914,5.5927,5.5986,5.5984,5.6022,5.6092,5.6119,5.6142,5.6215,5.6211,5.6227,5.6261,5.6297,5.6305,5.6312,5.6339,5.6349,5.6233,5.6233,5.6233,0,5.5718,5.5786,5.58,5.5849,5.5876,5.5876,5.5927,5.5952,5.6004,5.6022,5.6009,5.6098,5.6123,5.6193,5.6211,5.6229,5.6243,5.6223,5.6303,5.631,5.6317,5.6343,5.6353,5.6235,5.6235,5.6235,5.6234,0,5.581,5.5857,5.5892,5.5945,5.5976,5.6025,5.6046,5.6075,5.6079,5.6097,5.6156,5.6186,5.6232,5.6249,5.6253,5.632,5.6312,5.63,5.6276,5.6329,5.6353,5.6363,5.6238,5.6237,5.6236,5.6236,0,0,5.5881,5.5942,5.5955,5.5979,5.6026,5.6062,5.611,5.6157,5.6182,5.6217,5.6259,5.6318,5.6309,5.6335,5.6342,5.6373,5.643,5.6358,5.6359,5.6372,5.6507,5.6516,5.6527,5.6428,5.643,5.6431,5.6504,0,5.5949,5.6038,5.6053,5.613,5.6174,5.6175,5.6217,5.6249,5.6267,5.6305,5.6323,5.6366,5.6349,5.6365,5.6397,5.6417,5.6458,5.6411,5.6466,5.6467,5.6458,5.654,5.655,5.6617,5.6513,5.6515,5.6516,0,5.6041,5.6081,5.6164,5.6205,5.6224,5.6262,5.6307,5.6344,5.638,5.639,5.642,5.6423,5.6472,5.6445,5.6513,5.6482,5.6504,5.6517,5.652,5.6527,5.6496,5.6549,5.6638,5.6649,5.6531,5.653,5.6529,0,5.6086,5.6161,5.622,5.6241,5.629,5.6317,5.6338,5.6373,5.6401,5.6439,5.6457,5.6499,5.6523,5.6555,5.6569,5.6548,5.6637,5.661,5.6647,5.6647,5.6666,5.6665,5.6762,5.6679,5.6679,5.6678,5.6678,0,5.6162,5.6212,5.6242,5.6278,5.6335,5.635,5.6405,5.6425,5.6457,5.6496,5.6498,5.6535,5.6551,5.659,5.6601,5.6657,5.6667,5.6676,5.6679,5.6677,5.6676,5.6693,5.6689,5.6681,5.6681,5.668,5.668,0,5.6223,5.6244,5.6309,5.6351,5.6363,5.6403,5.6438,5.6473,5.649,5.654,5.6553,5.6579,5.6625,5.6643,5.6698,5.6706,5.677,5.6768,5.6759,5.676,5.6795,5.6792,5.6907,5.6923,5.6829,5.6829,5.683,0,5.627,5.631,5.6356,5.6384,5.6407,5.6451,5.648,5.6496,5.6526,5.657,5.66,5.6646,5.6684,5.6758,5.6781,5.6823,5.6823,5.686,5.6829,5.6827,5.6825,5.6823,5.6828,5.6866,5.6867,5.6868,5.6869,0,5.6352,5.6361,5.6404,5.645,5.6485,5.6522,5.6557,5.6579,5.66,5.6633,5.6682,5.6711,5.6769,5.6815,5.6859,5.6879,5.6878,5.6878,5.6889,5.6888,5.6882,5.6887,5.6776,5.6876,5.6875,5.6875,5.6874,5.6874,5.6409,5.6445,5.6484,5.6531,5.656,5.6593,5.6629,5.6651,5.6692,5.6742,5.6748,5.68,5.6835,5.6894,5.6916,5.6956,5.6946,5.6961,5.6965,5.6969,5.6973,5.6875,5.6964,5.6963,5.6963,5.6963,5.6963,0,5.6493,5.6518,5.6561,5.6612,5.6649,5.6646,5.6685,5.6716,5.6762,5.6796,5.6834,5.6889,5.6934,5.6961,5.7006,5.7032,5.7033,5.7044,5.7043,5.7047,5.6979,5.6965,5.7043,5.7043,5.7043,5.7043,5.7043,5.7043,5.6541,5.6602,5.6615,5.6689,5.6714,5.6766,5.6789,5.682,5.6847,5.691,5.6948,5.6965,5.6996,5.7043,5.7084,5.709,5.7107,5.7119,5.7125,5.706,5.7052,5.7044,5.7032,5.7122,5.7122,5.7191,5.7191,5.7192]}]]